Regional Weather Roundup
Issued by NWS

Home | Current Version | Previous Version | Text Only | Print | Product List | Glossary On
Versions: 1 2 3 4 5 6 7 8 9 10 11 12 13 14 15 16 17 18 19 20 21 22 23 24 25 26 27 28 29 30 31 32 33 34 35 36 37 38 39 40 41 42 43 44 45 46 47 48 49 50
000
ASUS43 KMPX 030710
RWRMN
WEATHER ROUNDUP FOR MINNESOTA
NATIONAL WEATHER SERVICE TWIN CITIES/CHANHASSEN MN
100 AM CST TUE MAR 03 2015


NOTE: "FAIR" INDICATES FEW OR NO CLOUDS BELOW 12,000 FEET WITH NO
SIGNIFICANT WEATHER AND/OR OBSTRUCTIONS TO VISIBILITY. N/A MEANS
CURRENT SKY AND/OR WEATHER CONDITIONS ARE NOT AVAILABLE.

MNZ060>063-068>070-030800-
   Twin Cities Metro

CITY           SKY/WX    TMP DP  RH WIND       PRES   REMARKS
TWIN CITIES    CLOUDY    22  10  60 SE7       29.99F WCI  13
ST PAUL        CLOUDY    22  12  65 SE15      30.01F WCI   9
CRYSTAL        CLOUDY    23  12  62 SE9       29.97F WCI  13
BLAINE         CLOUDY    23  16  74 SE6       29.98F WCI  16
LAKEVILLE      CLOUDY    19  12  73 SE7       29.99F WCI  10
EDEN PRAIRIE   CLOUDY    22  12  65 SE8       29.97F WCI  12
SOUTH ST PAUL  CLOUDY    22  12  65 SE6       30.01F WCI  15
LAKE ELMO      CLOUDY    23  12  63 SE8       30.00F WCI  14
$$
MNZ001>005-007-008-013>017-022>024-027-028-030800-
   Northwest Minnesota

CITY           SKY/WX    TMP DP  RH WIND       PRES   REMARKS
BEMIDJI        CLOUDY    23  15  72 S14G23    29.76F WCI  11
HALLOCK        MOCLDY    21  18  86 S17       29.70F WCI   7
ROSEAU         PTCLDY    25  18  74 SW16G22   29.70S WCI  12
WARROAD        PTCLDY    25  18  74 S14G22    29.69F WCI  13
THIEF RVR FALL CLOUDY    25  18  74 S20       29.73F WCI  11
CROOKSTON      CLOUDY    25  19  80 S18G24    29.76S WCI  11
FOSSTON        CLOUDY    23  18  80 S21       29.74F WCI   8
DETROIT LAKES  CLOUDY    27  23  86 S20       29.77F WCI  13
MOORHEAD       CLOUDY    27  25  93 S18G25    29.76F WCI  13
PARK RAPIDS    CLOUDY    23  16  74 S14       29.80F WCI  11
MAHNOMEN       FAIR      24  19  81 S18G25    29.74F WCI  11
$$
MNZ006-009>011-018-025>026-030800-
   North Central Minnesota

CITY           SKY/WX    TMP DP  RH WIND       PRES   REMARKS
BAUDETTE       MOCLDY    23  12  62 S15       29.70F WCI  10
FLAG ISLAND    CLOUDY    19  16  86 S10       29.68F WCI   8
INTL FALLS     CLOUDY    24   9  52 VRB7      29.75F WCI  16
WASKISH        CLOUDY    25  16  68 S13G18    29.74F WCI  13
BIG FORK       CLOUDY    23  10  58 S17       29.79F WCI   9
LONGVILLE      CLOUDY    21  12  68 S13G21    29.83F WCI   9
GRAND RAPIDS   CLOUDY    21   9  58 S17G23    29.83F WCI   7
CRANE LAKE     CLOUDY    21   7  53 S12       29.83F WCI   9
ORR            CLOUDY    21   7  53 S14       29.78F WCI   8
COOK           CLOUDY    21   9  58 S12       29.83F WCI   9
WALKER         CLOUDY    22  14  70 S10G17    29.79F WCI  12
$$
MNZ012-019>021-037-030800-
   Northeast Minnesota

CITY           SKY/WX    TMP DP  RH WIND       PRES   REMARKS
DULUTH         CLOUDY    20   4  50 S12       29.91F WCI   8
ELY            CLOUDY    19   5  53 S9        29.85F WCI   9
HIBBING        CLOUDY    20   6  55 S10G21    29.86F WCI   9
EVELETH        MOCLDY    21   7  53 S12       29.88F WCI   9
DULUTH HARBOR  CLOUDY    23   7  50 S8        29.99F WCI  14
TWO HARBORS    CLOUDY    23   9  54 S6        29.93F WCI  16
SILVER BAY     CLOUDY    21   7  53 S7        29.93F WCI  13
GRAND MARAIS     N/A     27  15  61 SW20      29.97F WCI  13
G MARAIS ARPRT CLOUDY    18   7  62 S6        29.90F WCI   9
$$
MNZ029>031-032-039>041-046>048-054>057-064-030800-
   West Central Minnesota

CITY           SKY/WX    TMP DP  RH WIND       PRES   REMARKS
FERGUS FALLS   CLOUDY    25  19  80 S18       29.84F WCI  11
WHEATON        MIX PCPN  25  19  80 SE20G26   29.81F WCI  11
MORRIS         CLOUDY    25  19  80 S21G26    29.83F WCI  10
ALEXANDRIA     CLOUDY    23  19  85 S15       29.84F WCI  10
ELBOW LAKE     CLOUDY    24  21  89 S22G30    29.81F WCI   9
WADENA         CLOUDY    21  18  86 S14G21    29.82F WCI   8
GLENWOOD       MOCLDY    23  19  86 S21       29.86F WCI   8
APPLETON       FLURRIES  27  21  80 SE15      29.84F WCI  15
BENSON         LGT SNOW  25  19  80 S13G18    29.86F WCI  13
ORTONVILLE     FLURRIES  25  19  80 SE12G18   29.82F WCI  14
MADISON        MOCLDY    27  21  80 S16       29.84F WCI  14
WILLMAR        LGT SNOW  23  19  86 SE15      29.89F WCI  10
$$
MNZ033>034-036-042>043-049>051-058-059-030800-
   Central Minnesota

CITY           SKY/WX    TMP DP  RH WIND       PRES   REMARKS
ST CLOUD       CLOUDY    22  13  68 SE13      29.93F WCI  10
SAUK CENTRE    CLOUDY    22  17  83 S16       29.88F WCI   8
PAYNESVILLE    LGT SNOW  20  16  84 E14       29.91F WCI   6
AITKIN         CLOUDY    25  10  54 S14G21    29.87F WCI  13
PINE RIVER     CLOUDY    21  14  73 S13G20    29.88F WCI   9
BRAINERD       CLOUDY    21  12  68 S15       29.88F WCI   8
STAPLES        CLOUDY    21  16  79 S14       29.85F WCI   8
LITTLE FALLS   CLOUDY    23  14  68 SE12      29.91F WCI  12
LITCHFIELD     MOCLDY    23  16  74 SE8       29.92F WCI  14
BUFFALO        CLOUDY    22  13  68 SE6       29.96F WCI  15
MAPLE LAKE     LGT SNOW  23  17  77 SE7       29.95F WCI  15
$$
MNZ037-044-045-052-053-030800-
   East Central Minnesota

CITY           SKY/WX    TMP DP  RH WIND       PRES   REMARKS
PRINCETON      CLOUDY    23  14  68 SE10      29.95F WCI  12
MORA           MOCLDY    21  10  63 S7        29.98F WCI  13
RUSH CITY      CLOUDY    21  12  68 S9        29.98F WCI  10
MOOSE LAKE     CLOUDY    21   9  58 S6        29.93F WCI  14
HINCKLEY       CLOUDY    21  12  68 S12       29.97F WCI   9
CLOQUET        CLOUDY    19   7  58 S10       29.92F WCI   8
MCGREGOR       CLOUDY    23  12  63 S12       29.91F WCI  12
$$
MNZ071>073-080-081-089-090-097-098-030800-
   Southwest Minnesota

CITY           SKY/WX    TMP DP  RH WIND       PRES   REMARKS
MONTEVIDEO     LGT SNOW  25  21  86 S13       29.86F WCI  13
GRANITE FALLS  CLOUDY    24  20  87 SE12G20   29.88F WCI  12
CANBY          CLOUDY    28  22  79 S7        29.84F WCI  20
MARSHALL       CLOUDY    25  18  74 S12       29.86F WCI  14
REDWOOD FALLS  CLOUDY    23  18  81 SE16      29.88F WCI  10
OLIVIA         MOCLDY    21  19  93 SE15      29.88F WCI   8
PIPESTONE      CLOUDY    25  19  80 S16       29.80F WCI  12
WINDOM         CLOUDY    23  19  86 SE12      29.86F WCI  12
WORTHINGTON    CLOUDY    25  18  74 S14       29.85F WCI  13
JACKSON        CLOUDY    25  19  80 SE12      29.88F WCI  14
TRACY          CLOUDY    26  21  79 S14       29.84F WCI  15
SLAYTON        CLOUDY    25  19  78 SE14      29.82F WCI  13
$$
MNZ065>067-074>077-082>085-091>093-030800-
   South Central Minnesota

CITY           SKY/WX    TMP DP  RH WIND       PRES   REMARKS
MANKATO        CLOUDY    21  12  68 SE12      29.94F WCI   9
NEW ULM        CLOUDY    21  16  79 SE12      29.92F WCI   9
ST JAMES       CLOUDY    25  19  80 SE12      29.93F WCI  14
FAIRMONT       CLOUDY    23  16  74 SE13      29.90F WCI  11
GLENCOE        CLOUDY    23  17  76 SE9       29.93F WCI  13
FARIBAULT      CLOUDY    21  14  73 SE9       29.97F WCI  11
OWATONNA       CLOUDY    21  14  73 SE16      29.95F WCI   7
WASECA         CLOUDY    21  16  79 SE15      29.98F WCI   8
ALBERT LEA     CLOUDY    21  18  86 SE12      29.96F WCI   9
$$
MNZ078>079-086>088-094>096-030800-
   Southeast Minnesota

CITY           SKY/WX    TMP DP  RH WIND       PRES   REMARKS
ROCHESTER      CLOUDY    20  13  74 SE13      29.99F WCI   7
RED WING       CLOUDY    23  10  58 SE7       30.02F WCI  15
STANTON        CLOUDY    24  13  64 SE8       29.98F WCI  14
DODGE CENTER   CLOUDY    21  16  79 SE16      29.96F WCI   7
WINONA         CLOUDY    25  14  63 SE6       30.07F WCI  18
AUSTIN         CLOUDY    21  16  79 SE8       29.97F WCI  12
PRESTON        CLOUDY    21  13  71 SE7       30.01F WCI  12
$$
ABBREVIATIONS USED IN REMARKS
   TC - TEMPERATURES IN CELSIUS
  WCI - WIND CHILL INDEX
   HX - HEAT INDEX
  VSB - VISIBILITY
$$


USA.gov is the U.S. government's official web portal to all federal, state and local government web resources and services.